Volver al catálogo

LILIUM-2

ActivoRadioaficionadoSSO
NORAD 66679·PAYLOAD·🇹🇼 Taiwan

Lanzado Nov 28, 2025 desde Vandenberg Space Force Base

Loading…

Próximos Pases (próximas 24 horas)

TLE

ActualizadoSource: Space-Track

Época: Sep 14, 2026, 03:41 UTC

1 66679U 25276P   26257.15382984  .00002332  00000-0  11675-3 0  9991
2 66679  97.4077 328.3989 0007392  64.3858 295.8139 15.18350302 43896

Sigue LILIUM-2 en tiempo real con AllMySat

Download on the App Store